Terminal Aerodrome Forecast
Issued by NWS

Home | Current Version | Previous Version | Text Only | Print | Product List | Glossary On
Versions: 1 2 3 4 5 6 7 8 9 10 11 12 13 14 15 16
000
FTUS46 KLOX 181100 RRA
TAFLGB
TAF
KLGB 181141Z 1812/1912 VRB03KT P6SM SKC
     FM181500 18008KT P6SM SCT015
     FM182100 20009KT P6SM SKC
     FM190000 29009KT P6SM SKC
     FM190200 30008KT P6SM BKN015
     FM190500 VRB03KT P6SM OVC020=

USA.gov is the U.S. government's official web portal to all federal, state and local government web resources and services.